Monument Pass, CO

11:16 AM MDT on June 28, 2017 (GMT -0600)
Monument Pass

Weather History for KMNH - November, 2012

Change the Weather History Date:

Wednesday, November 14, 2012

  Actual Average Record
Temperature  
Mean Temperature 38 °F -  
Max Temperature 53 °F - 63 °F (2016)
Min Temperature 24 °F - 5 °F (2014)
Degree Days  
Heating Degree Days 26    
Month to date heating degree days  
Cooling Degree Days 0    
Month to date cooling degree days  
Moisture  
Dew Point 13 °F    
Average Humidity 46    
Maximum Humidity 80    
Minimum Humidity 13    
Precipitation  
Precipitation 0.00 in - 0.06 in (2005)
Sea Level Pressure  
Sea Level Pressure 30.18 in    
Wind  
Wind Speed 10 mph (SSW)    
Max Wind Speed 15 mph    
Max Gust Speed -    
Visibility 10 miles    
Events      
T = Trace of Precipitation, MM = Missing Value Source: NWS Daily Summary

Daily Weather History Graph

Daily Weather History Graph

Search for Another Location

Airport or City:

Trip Planner

Search our weather history database for the weather conditions in past years. The results will help you decide how hot, cold, wet, or windy it might be!

Date:

Astronomy

Nov. 14, 2012 Rise Set
Actual Time 6:41 AM MST 4:44 PM MST
Civil Twilight 6:12 AM MST 5:12 PM MST
Nautical Twilight 5:40 AM MST 5:45 PM MST
Astronomical Twilight 5:08 AM MST 6:16 PM MST
Moon 7:33 AM MST (11/14) 5:35 PM MST (11/14)
Length of Visible Light 11h 00m
Length of Day
10h 02m
New Moon, 1% of the Moon is Illuminated
Nov 14
New Moon
Nov 20
First Quarter
Nov 28
Full
Dec 6
Last Quarter
Dec 13
New

Hourly Weather History & Observations

Time (MST) Temp. Windchill Dew Point Humidity Pressure Visibility Wind Dir Wind Speed Gust Speed Precip Events Conditions
12:11 AM 28.4 °F 18.0 °F 21.2 °F 74% 30.25 in 10.0 mi South 12.7 mph - N/A   Clear
12:31 AM 30.2 °F 19.3 °F 21.2 °F 69% 30.25 in 10.0 mi SSW 15.0 mph - N/A   Clear
12:51 AM 30.2 °F 19.3 °F 21.2 °F 69% 30.25 in 10.0 mi South 15.0 mph - N/A   Clear
1:10 AM 28.4 °F 18.5 °F 21.2 °F 74% 30.24 in 10.0 mi South 11.5 mph - N/A   Clear
1:31 AM 26.6 °F 16.2 °F 21.2 °F 80% 30.24 in 10.0 mi South 11.5 mph - N/A   Clear
1:51 AM 26.6 °F 17.5 °F 21.2 °F 80% 30.24 in 10.0 mi South 9.2 mph - N/A   Clear
2:11 AM 26.6 °F 16.2 °F 19.4 °F 74% 30.23 in 10.0 mi South 11.5 mph - N/A   Clear
2:31 AM 26.6 °F 17.5 °F 19.4 °F 74% 30.21 in 10.0 mi South 9.2 mph - N/A   Clear
2:51 AM 26.6 °F 16.2 °F 21.2 °F 80% 30.21 in 10.0 mi South 11.5 mph - N/A   Clear
3:10 AM 28.4 °F 18.0 °F 19.4 °F 69% 30.20 in 10.0 mi South 12.7 mph - N/A   Clear
3:31 AM 26.6 °F 16.2 °F 19.4 °F 74% 30.20 in 10.0 mi South 11.5 mph - N/A   Clear
3:51 AM 26.6 °F 16.8 °F 19.4 °F 74% 30.19 in 10.0 mi South 10.4 mph - N/A   Clear
4:11 AM 24.8 °F 15.3 °F 19.4 °F 80% 30.19 in 10.0 mi South 9.2 mph - N/A   Clear
4:31 AM 26.6 °F 16.8 °F 19.4 °F 74% 30.19 in 10.0 mi South 10.4 mph - N/A   Clear
4:51 AM 28.4 °F 19.1 °F 19.4 °F 69% 30.19 in 10.0 mi SSW 10.4 mph - N/A   Clear
5:11 AM 28.4 °F 19.7 °F 17.6 °F 64% 30.19 in 10.0 mi SSW 9.2 mph - N/A   Clear
5:30 AM 26.6 °F 18.2 °F 17.6 °F 69% 30.19 in 10.0 mi SSW 8.1 mph - N/A   Clear
5:51 AM 26.6 °F 20.0 °F 15.8 °F 64% 30.19 in 10.0 mi SSW 5.8 mph - N/A   Clear
6:11 AM 28.4 °F 21.2 °F 14.0 °F 55% 30.19 in 10.0 mi SSW 6.9 mph - N/A   Clear
6:30 AM 26.6 °F 17.5 °F 15.8 °F 64% 30.20 in 10.0 mi SSW 9.2 mph - N/A   Clear
6:51 AM 28.4 °F 19.1 °F 15.8 °F 59% 30.20 in 10.0 mi SSW 10.4 mph - N/A   Clear
7:10 AM 30.2 °F 20.2 °F 14.0 °F 51% 30.21 in 10.0 mi SSW 12.7 mph - N/A   Clear
7:31 AM 30.2 °F 20.2 °F 14.0 °F 51% 30.21 in 10.0 mi SW 12.7 mph - N/A   Clear
7:50 AM 33.8 °F 25.8 °F 12.2 °F 41% 30.21 in 10.0 mi SSW 10.4 mph - N/A   Clear
8:11 AM 35.6 °F 29.9 °F 14.0 °F 41% 30.22 in 10.0 mi SSW 6.9 mph - N/A   Clear
8:31 AM 37.4 °F 31.4 °F 14.0 °F 38% 30.22 in 10.0 mi SW 8.1 mph - N/A   Clear
8:51 AM 39.2 °F 33.6 °F 14.0 °F 36% 30.22 in 10.0 mi SW 8.1 mph - N/A   Clear
9:10 AM 42.8 °F 38.6 °F 14.0 °F 31% 30.21 in 10.0 mi SW 6.9 mph - N/A   Clear
9:31 AM 46.4 °F 42.9 °F 10.4 °F 23% 30.21 in 10.0 mi SW 6.9 mph - N/A   Clear
9:51 AM 50.0 °F - 1.4 °F 14% 30.21 in 10.0 mi SW 5.8 mph - N/A   Clear
10:11 AM 50.0 °F - -0.4 °F 13% 30.20 in 10.0 mi Calm Calm - N/A   Clear
10:31 AM 51.8 °F - 1.4 °F 13% 30.20 in 10.0 mi Calm Calm - N/A   Clear
10:51 AM 51.8 °F - 1.4 °F 13% 30.19 in 10.0 mi SSW 3.5 mph - N/A   Clear
11:11 AM 51.8 °F - 1.4 °F 13% 30.17 in 10.0 mi East 3.5 mph - N/A   Clear
11:30 AM 51.8 °F - 3.2 °F 14% 30.16 in 10.0 mi ENE 3.5 mph - N/A   Clear
11:51 AM 53.6 °F - 3.2 °F 13% 30.15 in 10.0 mi East 8.1 mph - N/A   Clear
12:11 PM 53.6 °F - 6.8 °F 15% 30.15 in 10.0 mi SE 5.8 mph - N/A   Clear
12:30 PM 53.6 °F - 10.4 °F 18% 30.14 in 10.0 mi SSE 9.2 mph - N/A   Clear
12:51 PM 53.6 °F - 8.6 °F 16% 30.13 in 10.0 mi SSE 9.2 mph - N/A   Clear
1:11 PM 51.8 °F - 6.8 °F 16% 30.13 in 10.0 mi SSE 10.4 mph - N/A   Clear
1:31 PM 51.8 °F - 5.0 °F 15% 30.13 in 10.0 mi SE 10.4 mph - N/A   Clear
1:51 PM 53.6 °F - 5.0 °F 14% 30.12 in 10.0 mi SE 10.4 mph - N/A   Clear
2:10 PM 51.8 °F - 5.0 °F 15% 30.12 in 10.0 mi SE 11.5 mph - N/A   Clear
2:31 PM 51.8 °F - 3.2 °F 14% 30.12 in 10.0 mi SSE 11.5 mph - N/A   Clear
2:50 PM 51.8 °F - 3.2 °F 14% 30.12 in 10.0 mi SSE 10.4 mph - N/A   Clear
3:11 PM 50.0 °F - 6.8 °F 17% 30.12 in 10.0 mi SSE 10.4 mph - N/A   Clear
3:31 PM 50.0 °F - 8.6 °F 19% 30.13 in 10.0 mi SSE 5.8 mph - N/A   Clear
3:51 PM 48.2 °F - 10.4 °F 22% 30.13 in 10.0 mi SE 5.8 mph - N/A   Clear
4:11 PM 44.6 °F 42.2 °F 12.2 °F 27% 30.13 in 10.0 mi SE 4.6 mph - N/A   Clear
4:31 PM 41.0 °F 38.0 °F 12.2 °F 31% 30.13 in 10.0 mi South 4.6 mph - N/A   Clear
4:51 PM 37.4 °F 32.8 °F 12.2 °F 36% 30.13 in 10.0 mi South 5.8 mph - N/A   Clear
5:11 PM 35.6 °F 30.7 °F 14.0 °F 41% 30.13 in 10.0 mi SSE 5.8 mph - N/A   Clear
5:31 PM 35.6 °F 30.7 °F 12.2 °F 38% 30.14 in 7.0 mi SW 5.8 mph - N/A   Clear
5:51 PM 33.8 °F 27.7 °F 14.0 °F 44% 30.15 in 10.0 mi SW 6.9 mph - N/A   Clear
6:11 PM 32.0 °F 24.8 °F 14.0 °F 48% 30.15 in 10.0 mi SW 8.1 mph - N/A   Clear
6:30 PM 33.8 °F 25.3 °F 14.0 °F 44% 30.15 in 10.0 mi WSW 11.5 mph - N/A   Clear
6:51 PM 32.0 °F 25.6 °F 14.0 °F 48% 30.15 in 10.0 mi WSW 6.9 mph - N/A   Clear
7:10 PM 32.0 °F 24.8 °F 14.0 °F 48% 30.15 in 10.0 mi West 8.1 mph - N/A   Clear
7:31 PM 32.0 °F 24.8 °F 15.8 °F 51% 30.15 in 10.0 mi West 8.1 mph - N/A   Clear
7:51 PM 32.0 °F 23.6 °F 15.8 °F 51% 30.16 in 10.0 mi WSW 10.4 mph - N/A   Clear
8:11 PM 32.0 °F 24.2 °F 15.8 °F 51% 30.16 in 10.0 mi West 9.2 mph - N/A   Clear
8:31 PM 32.0 °F 24.8 °F 17.6 °F 55% 30.17 in 10.0 mi West 8.1 mph - N/A   Clear
8:51 PM 32.0 °F 24.8 °F 17.6 °F 55% 30.18 in 10.0 mi West 8.1 mph - N/A   Clear
9:11 PM 32.0 °F 24.8 °F 17.6 °F 55% 30.18 in 10.0 mi West 8.1 mph - N/A   Clear
9:30 PM 32.0 °F 25.6 °F 17.6 °F 55% 30.18 in 10.0 mi West 6.9 mph - N/A   Scattered Clouds
9:51 PM 32.0 °F 25.6 °F 19.4 °F 60% 30.18 in 10.0 mi West 6.9 mph - N/A   Scattered Clouds
10:11 PM 32.0 °F 28.7 °F 17.6 °F 55% 30.17 in 10.0 mi SW 3.5 mph - N/A   Scattered Clouds
10:31 PM 32.0 °F 25.6 °F 17.6 °F 55% 30.17 in 10.0 mi SW 6.9 mph - N/A   Scattered Clouds
10:51 PM 28.4 °F 24.6 °F 17.6 °F 64% 30.18 in 10.0 mi WSW 3.5 mph - N/A   Clear
11:11 PM 28.4 °F 24.6 °F 15.8 °F 59% 30.18 in 10.0 mi SW 3.5 mph - N/A   Clear
11:31 PM 28.4 °F 24.6 °F 15.8 °F 59% 30.18 in 10.0 mi WSW 3.5 mph - N/A   Clear
11:51 PM 28.4 °F 23.3 °F 15.8 °F 59% 30.18 in 10.0 mi SW 4.6 mph - N/A   Clear